[[{"header":{"parameterUnit":"m.s-1","parameterCategory":1,"la1":30.2991,"la2":30.254,"lo1":-89.0895,"lo2":-89.0444,"dy":0.0017,"dx":0.0017,"nx":28,"ny":28,"refTime":"2024-03-24T03:00:00:Z","depth":0,"parameterNumber":2,"parameterNumberName":"U-component_of_WINDS"},"data":[0,0,0,0,0,0,0,0,0,0,0,0,0,0,0,0,0,0,0,0,0,0,0,0,0,0,0,0,0,0,0,0,0,0,0,0,0,0,0,0,0,0,0,0,0,0,0,0,0,0,0,0,0,0,0,0,0,0,-5.904,-5.9041,0,-5.9132,-5.9133,-5.9134,-5.9112,-5.911,-5.9108,-5.9106,-5.9197,-5.9201,-5.9205,0,0,0,0,0,0,0,0,0,0,0,0,0,-5.8844,-5.8848,-5.904,-5.9041,-5.9042,-5.9131,-5.9133,-5.9134,-5.9112,-5.911,-5.9108,-5.9106,-5.9195,-5.92,-5.9205,0,0,0,0,0,0,0,0,0,0,0,0,0,-5.8932,-5.8849,-5.904,-5.9042,-5.9043,-5.9131,-5.9133,-5.9134,-5.9112,-5.911,-5.9107,-5.9105,-5.9194,-5.92,-5.9206,-5.9296,0,0,-5.9224,-5.9227,0,0,0,0,0,0,0,0,-5.8927,-5.8939,-5.9041,-5.9042,-5.9044,-5.9108,-5.9097,-5.9188,-5.9113,-5.9086,-5.9106,-5.9103,-5.9169,-5.9177,-5.92,-5.93,-5.9304,-5.9225,-5.9228,-5.9231,-5.9233,0,0,0,0,0,0,0,-5.8921,-5.8935,-5.9076,-5.9042,-5.9044,-5.9038,-5.9047,-5.9114,-5.9141,-5.9088,-5.9087,-5.9098,-5.9169,-5.9194,-5.9202,-5.9305,-5.9225,-5.923,-5.9234,-5.9236,-5.9484,-5.9487,0,0,0,0,0,0,-5.8914,-5.893,-5.9073,-5.9079,-5.8978,-5.9044,-5.9054,-5.909,-5.914,-5.9146,-5.91,-5.9097,-5.9185,-5.9195,-5.9205,-5.9312,-5.9231,-5.9237,-5.924,-5.9481,-5.9484,-5.9488,0,0,0,0,0,0,-5.891,-5.8927,-5.907,-5.9004,-5.9022,-5.905,-5.909,-5.9093,-5.9117,-5.9149,-5.9154,-5.9121,-5.9183,-5.9196,-5.9273,-5.9315,-5.9239,-5.9245,-5.9477,-5.9482,-5.9486,-5.9529,0,0,0,0,0,0,-5.8904,-5.8926,-5.896,-5.9005,-5.9026,-5.9137,-5.9092,-5.9096,-5.9128,-5.9125,-5.917,-5.9175,-5.9182,-5.9265,-5.9279,-5.9322,-5.925,-5.9474,-5.9479,-5.9485,-5.9524,-5.9534,-5.9543,0,0,0,0,0,-5.8897,-5.8968,-5.8962,-5.898,-5.907,-5.914,-5.9151,-5.9159,-5.9132,-5.9167,-5.9187,-5.9173,-5.9309,-5.9273,-5.9289,-5.9334,-5.9471,-5.9478,-5.9484,-5.952,-5.9532,-5.9543,0,0,0,0,0,0,-5.8926,-5.8974,-5.8968,-5.9056,-5.9094,-5.9136,-5.918,-5.9173,-5.9219,-5.9213,-5.9221,-5.9231,-5.9309,-5.933,-5.9289,-5.9424,-5.9386,-5.9396,-5.9407,-5.942,-5.9429,-5.9421,-5.9255,0,0,0,0,0,-5.8943,-5.8997,-5.9036,-5.9109,-5.9129,-5.9152,-5.9182,-5.9186,-5.9225,-5.9241,-5.9267,-5.9305,-5.9356,-5.939,-5.9439,-5.9528,-5.9537,-5.9568,-5.9577,-5.9585,-5.9593,-5.9641,-5.9654,-5.9509,-5.9509,-5.9509,0,0,-5.8978,-5.9011,-5.9044,-5.9116,-5.9146,-5.92,-5.9165,-5.9224,-5.9264,-5.9249,-5.9323,-5.9345,-5.9388,-5.9471,-5.9509,-5.9491,-5.9636,-5.9594,-5.96,-5.9603,-5.9649,-5.9663,-5.9675,-5.9514,-5.9513,-5.9512,0,0,-5.9068,-5.9099,-5.9163,-5.9195,-5.9242,-5.9256,-5.9272,-5.9316,-5.9329,-5.9405,-5.9395,-5.9443,-5.9531,-5.9562,-5.9589,-5.9694,-5.9682,-5.971,-5.9759,-5.9805,-5.9817,-5.9827,-5.9862,-5.9875,-5.9718,-5.9718,-5.9718,0,-5.9104,-5.9187,-5.9197,-5.9257,-5.9289,-5.928,-5.9345,-5.9375,-5.9434,-5.9456,-5.9435,-5.9546,-5.9575,-5.9665,-5.9691,-5.9714,-5.9731,-5.9703,-5.9815,-5.9825,-5.9834,-5.9868,-5.9881,-5.9721,-5.9721,-5.9721,-5.972,0,-5.9228,-5.9286,-5.9332,-5.9391,-5.9429,-5.9491,-5.951,-5.9546,-5.9547,-5.9564,-5.9641,-5.9675,-5.9731,-5.9753,-5.9754,-5.9844,-5.9831,-5.9813,-5.9773,-5.9851,-5.9882,-5.9896,-5.9725,-5.9724,-5.9723,-5.9723,0,0,-5.9336,-5.9402,-5.9418,-5.9445,-5.9497,-5.9541,-5.9603,-5.9659,-5.9689,-5.9732,-5.9782,-5.9859,-5.9842,-5.9874,-5.9879,-5.992,-5.9998,-5.9896,-5.9898,-5.9912,-6.0097,-6.0108,-6.0123,-5.9993,-5.9995,-5.9997,-6.0093,0,-5.9429,-5.9538,-5.955,-5.9647,-5.97,-5.9694,-5.9748,-5.9785,-5.9803,-5.985,-5.987,-5.9923,-5.9899,-5.9917,-5.9959,-5.998,-6.0035,-5.9974,-6.0038,-6.004,-6.0024,-6.014,-6.0151,-6.024,-6.0105,-6.0107,-6.0109,0,-5.955,-5.9597,-5.97,-5.9745,-5.9768,-5.9816,-5.9868,-5.9913,-5.9956,-5.9966,-6.0002,-6.0002,-6.0065,-6.0027,-6.0113,-6.0071,-6.0099,-6.0114,-6.0118,-6.0121,-6.0076,-6.0143,-6.0268,-6.028,-6.0129,-6.0127,-6.0126,0,-5.9615,-5.9705,-5.9777,-5.9801,-5.9856,-5.9889,-5.9914,-5.9954,-5.9987,-6.0032,-6.0053,-6.0106,-6.0134,-6.0175,-6.0188,-6.016,-6.0274,-6.0237,-6.0282,-6.0282,-6.0303,-6.0301,-6.0431,-6.0327,-6.0327,-6.0326,-6.0326,0,-5.9716,-5.9778,-5.9807,-5.9851,-5.9921,-5.9935,-6.0004,-6.0026,-6.0063,-6.0111,-6.011,-6.0155,-6.0172,-6.022,-6.0232,-6.03,-6.0314,-6.0323,-6.0324,-6.0321,-6.0319,-6.0336,-6.0329,-6.033,-6.0329,-6.0328,-6.0328,0,-5.9798,-5.9821,-5.9899,-5.9945,-5.9959,-6.0008,-6.0047,-6.0089,-6.0109,-6.0169,-6.0185,-6.0214,-6.027,-6.0289,-6.0357,-6.0365,-6.0445,-6.0443,-6.043,-6.0429,-6.0473,-6.0467,-6.0616,-6.0635,-6.0521,-6.0522,-6.0523,0,-5.9859,-5.9907,-5.9959,-5.9992,-6.0017,-6.007,-6.0104,-6.012,-6.0156,-6.0208,-6.0244,-6.0301,-6.0346,-6.0437,-6.0463,-6.0515,-6.0513,-6.0561,-6.052,-6.0515,-6.051,-6.0506,-6.051,-6.0568,-6.0569,-6.057,-6.0571,0,-5.9964,-5.9973,-6.0022,-6.0076,-6.0116,-6.0159,-6.02,-6.0227,-6.025,-6.0289,-6.0347,-6.0383,-6.0453,-6.0509,-6.0562,-6.0587,-6.0582,-6.0584,-6.0597,-6.0592,-6.0581,-6.0585,-6.0448,-6.0579,-6.0579,-6.0578,-6.0577,-6.0577,-6.0035,-6.0078,-6.0121,-6.0176,-6.0209,-6.0248,-6.029,-6.0315,-6.0364,-6.0423,-6.043,-6.0492,-6.0534,-6.0606,-6.0633,-6.0682,-6.0668,-6.0687,-6.0691,-6.0695,-6.0697,-6.0577,-6.0692,-6.0692,-6.0691,-6.0691,-6.0691,0,-6.0138,-6.0166,-6.0217,-6.0275,-6.0318,-6.0313,-6.0359,-6.0394,-6.0449,-6.049,-6.0535,-6.0602,-6.0656,-6.0688,-6.0742,-6.0775,-6.0774,-6.0788,-6.0784,-6.0789,-6.0707,-6.0689,-6.0788,-6.0788,-6.0788,-6.0788,-6.0788,-6.0788,-6.0196,-6.0266,-6.0281,-6.0368,-6.0396,-6.0457,-6.0483,-6.0519,-6.0551,-6.0626,-6.0671,-6.0693,-6.0729,-6.0786,-6.0836,-6.0844,-6.0862,-6.0878,-6.0884,-6.0805,-6.0795,-6.0786,-6.0769,-6.0882,-6.0882,-6.0962,-6.0962,-6.0963]},{"header":{"parameterUnit":"m.s-1","parameterCategory":1,"la1":30.2991,"la2":30.254,"lo1":-89.0895,"lo2":-89.0444,"dy":0.0017,"dx":0.0017,"nx":28,"ny":28,"refTime":"2024-03-24T03:00:00:Z","depth":0,"parameterNumber":3,"parameterNumberName":"V-component_of_WINDS"},"data":[0,0,0,0,0,0,0,0,0,0,0,0,0,0,0,0,0,0,0,0,0,0,0,0,0,0,0,0,0,0,0,0,0,0,0,0,0,0,0,0,0,0,0,0,0,0,0,0,0,0,0,0,0,0,0,0,0,0,4.4963,4.4963,0,4.4992,4.4993,4.4993,4.4956,4.4955,4.4953,4.4952,4.4982,4.4984,4.4986,0,0,0,0,0,0,0,0,0,0,0,0,0,4.4876,4.4878,4.4963,4.4963,4.4964,4.4992,4.4993,4.4993,4.4956,4.4955,4.4953,4.4952,4.4981,4.4984,4.4986,0,0,0,0,0,0,0,0,0,0,0,0,0,4.4911,4.4879,4.4963,4.4949,4.4948,4.4992,4.4993,4.4993,4.4957,4.4955,4.4953,4.4951,4.4981,4.4983,4.4987,4.5046,0,0,4.4996,4.4997,0,0,0,0,0,0,0,0,4.4909,4.4914,4.495,4.495,4.4949,4.4969,4.4973,4.5011,4.4957,4.4953,4.4952,4.495,4.4979,4.4982,4.4992,4.5047,4.5049,4.4996,4.4998,4.4999,4.5,0,0,0,0,0,0,0,4.4906,4.4912,4.4974,4.4951,4.495,4.4941,4.4944,4.498,4.4977,4.4954,4.4951,4.4955,4.4978,4.4989,4.4993,4.5049,4.4996,4.4999,4.5001,4.5002,4.5158,4.516,0,0,0,0,0,0,4.4905,4.4911,4.4974,4.4975,4.4923,4.4945,4.4948,4.4964,4.4977,4.4977,4.4957,4.4953,4.4985,4.4989,4.4993,4.5066,4.4999,4.5002,4.5004,4.5156,4.5158,4.5161,0,0,0,0,0,0,4.4904,4.4911,4.4972,4.4942,4.4949,4.4948,4.4967,4.4966,4.4977,4.4979,4.4978,4.4968,4.4984,4.4989,4.5034,4.5066,4.5004,4.5006,4.5153,4.5156,4.516,4.521,0,0,0,0,0,0,4.4901,4.4911,4.4933,4.4943,4.4951,4.5012,4.4969,4.4968,4.4982,4.4978,4.499,4.499,4.4982,4.503,4.5037,4.5069,4.5009,4.515,4.5154,4.5159,4.5205,4.5215,4.5223,0,0,0,0,0,4.4898,4.4945,4.4934,4.4942,4.4979,4.5014,4.5018,4.5009,4.4985,4.5008,4.501,4.499,4.5062,4.5034,4.5043,4.5076,4.5148,4.5153,4.5158,4.5201,4.5213,4.5222,0,0,0,0,0,0,4.4938,4.4946,4.4934,4.4986,4.5,4.5008,4.5035,4.5021,4.5042,4.5037,4.5024,4.5027,4.5075,4.508,4.505,4.5136,4.5101,4.5108,4.5131,4.5142,4.515,4.5148,4.5011,0,0,0,0,0,4.4953,4.4981,4.4986,4.5031,4.5039,4.5036,4.5051,4.5043,4.5057,4.5062,4.5067,4.5082,4.5108,4.5125,4.5149,4.5206,4.5209,4.5234,4.5242,4.5249,4.5255,4.5288,4.53,4.5178,4.5178,4.5178,0,0,4.4984,4.4992,4.501,4.504,4.5049,4.5079,4.5041,4.5074,4.5096,4.5067,4.511,4.5115,4.513,4.5182,4.5205,4.5188,4.529,4.5256,4.5261,4.5264,4.5295,4.5306,4.5317,4.5181,4.5181,4.518,0,0,4.5055,4.5063,4.5103,4.5114,4.513,4.5128,4.5138,4.5149,4.5151,4.5194,4.5174,4.5201,4.5245,4.5258,4.527,4.5349,4.5332,4.5357,4.5402,4.5435,4.5444,4.5453,4.5483,4.5493,4.5364,4.5364,4.5364,0,4.5091,4.5135,4.5125,4.516,4.5174,4.5151,4.5191,4.5202,4.5225,4.5236,4.5216,4.5274,4.5282,4.5338,4.5358,4.5368,4.5379,4.5356,4.5444,4.5452,4.546,4.5488,4.5499,4.5367,4.5367,4.5366,4.5366,0,4.5179,4.521,4.524,4.5264,4.5282,4.532,4.5316,4.5336,4.5327,4.5328,4.5373,4.5383,4.541,4.5422,4.5413,4.5478,4.5467,4.5446,4.541,4.5475,4.5501,4.5512,4.5371,4.537,4.5369,4.5368,0,0,4.5275,4.5295,4.5306,4.5318,4.5335,4.5358,4.5396,4.5423,4.5441,4.5458,4.549,4.5529,4.5511,4.5525,4.5517,4.5546,4.5611,4.5521,4.5522,4.5539,4.5684,4.57,4.5713,4.56,4.5602,4.5603,4.5683,0,4.5348,4.5412,4.5406,4.5468,4.5497,4.5477,4.551,4.5524,4.5527,4.5553,4.5555,4.5585,4.5557,4.5566,4.5593,4.5597,4.564,4.5591,4.563,4.5631,4.5627,4.5727,4.5743,4.5818,4.5693,4.5695,4.5696,0,4.544,4.5462,4.5528,4.5543,4.5555,4.5584,4.561,4.5635,4.5651,4.5652,4.5669,4.5657,4.5696,4.566,4.5714,4.5682,4.5697,4.5702,4.5705,4.5708,4.5668,4.5734,4.5842,4.5854,4.5712,4.5711,4.571,0,4.5506,4.5551,4.5597,4.5607,4.5625,4.5647,4.5656,4.5671,4.5688,4.571,4.5722,4.5748,4.5763,4.5784,4.5781,4.5755,4.5837,4.58,4.5839,4.5839,4.5857,4.5856,4.597,4.5866,4.5866,4.5866,4.5866,0,4.5588,4.5629,4.5627,4.5655,4.5701,4.5694,4.574,4.5746,4.576,4.5789,4.5773,4.5801,4.5795,4.5823,4.5821,4.5867,4.5873,4.5875,4.5874,4.5877,4.5877,4.5888,4.5883,4.5869,4.5868,4.5868,4.5867,0,4.5668,4.5668,4.5717,4.5731,4.5735,4.5769,4.5781,4.5808,4.581,4.5848,4.5857,4.586,4.5893,4.5892,4.5929,4.5928,4.5985,4.5978,4.598,4.5978,4.6018,4.6015,4.6143,4.616,4.6045,4.6046,4.6047,0,4.5721,4.5752,4.577,4.5789,4.58,4.583,4.5848,4.5843,4.5863,4.5886,4.5911,4.5943,4.5968,4.6022,4.6028,4.6057,4.605,4.6093,4.6054,4.6057,4.6053,4.6051,4.6055,4.6101,4.6102,4.6103,4.6104,0,4.5815,4.5814,4.5841,4.5869,4.5891,4.5913,4.5933,4.5949,4.5946,4.597,4.6004,4.6023,4.6062,4.6095,4.6123,4.6132,4.6119,4.6117,4.6128,4.6131,4.6132,4.6133,4.6002,4.6114,4.6113,4.6112,4.6112,4.6111,4.5884,4.5912,4.593,4.5961,4.5976,4.5995,4.6022,4.6028,4.6057,4.6088,4.6083,4.6122,4.614,4.6177,4.619,4.622,4.6205,4.622,4.6224,4.6228,4.6233,4.6126,4.6225,4.6225,4.6225,4.6224,4.6224,0,4.5978,4.5989,4.6018,4.6047,4.6073,4.6058,4.608,4.6102,4.6136,4.6155,4.618,4.6221,4.6253,4.6262,4.6293,4.6316,4.6311,4.6325,4.6323,4.6326,4.6244,4.6233,4.6329,4.6329,4.6328,4.6328,4.6328,4.6328,4.6031,4.6078,4.608,4.6135,4.6145,4.6183,4.6197,4.6216,4.6231,4.6277,4.6303,4.631,4.6325,4.6358,4.6387,4.6389,4.6402,4.6418,4.6418,4.6342,4.6331,4.6321,4.631,4.6421,4.6421,4.6497,4.6498,4.6498]}]]